This is the latest recevied weather packets stored in our database for station/object DF1GD-10. If no packets are shown the sender has not sent any weather packets the latest 10 day(s).
| Time | Temp. | Humidity | Pressure | Rain* | Wind** | Luminosity | Snow |
|---|---|---|---|---|---|---|---|
| 1788639234 | 19.44° C | 32% | 1024.3 hPa | - | - | - | - |
| 1788638334 | 19.44° C | 37% | 1024.1 hPa | - | - | - | - |
| 1788637434 | 20° C | 36% | 1023.9 hPa | - | - | - | - |
| 1788636534 | 20.56° C | 32% | 1023.7 hPa | - | - | - | - |
| 1788635634 | 21.11° C | 31% | 1023.7 hPa | - | - | - | - |
| 1788634734 | 21.67° C | 30% | 1023.5 hPa | - | - | - | - |
| 1788633834 | 22.22° C | 27% | 1023.3 hPa | - | - | - | - |
| 1788632933 | 22.78° C | 26% | 1023 hPa | - | - | - | - |
| 1788632033 | 23.33° C | 26% | 1022.9 hPa | - | - | - | - |
| 1788631133 | 24.44° C | 25% | 1022.8 hPa | - | - | - | - |
| 1788630233 | 25° C | 23% | 1022.7 hPa | - | - | - | - |
| 1788629333 | 26.11° C | 21% | 1022.6 hPa | - | - | - | - |
| 1788628433 | 27.22° C | 19% | 1022.5 hPa | - | - | - | - |
| 1788627532 | 28.33° C | 18% | 1022.3 hPa | - | - | - | - |
| 1788626632 | 28.89° C | 17% | 1022.5 hPa | - | - | - | - |
| 1788625732 | 28.89° C | 16% | 1022.2 hPa | - | - | - | - |
| 1788624832 | 29.44° C | 16% | 1022.2 hPa | - | - | - | - |
| 1788623932 | 30° C | 16% | 1022.1 hPa | - | - | - | - |
| 1788623032 | 30.56° C | 16% | 1022.2 hPa | - | - | - | - |
| 1788622132 | 31.11° C | 16% | 1022 hPa | - | - | - | - |
| 1788621231 | 30.56° C | 17% | 1022.2 hPa | - | - | - | - |
| 1788620331 | 31.67° C | 15% | 1022.3 hPa | - | - | - | - |
| 1788619431 | 31.67° C | 16% | 1022.2 hPa | - | - | - | - |
| 1788618531 | 31.67° C | 17% | 1022.2 hPa | - | - | - | - |
| 1788617631 | 31.67° C | 17% | 1022.4 hPa | - | - | - | - |
* Rain since midnight (hover to see other rain measurements)
** Current wind speed in m/s (hover to see current wind gust speed)